C/2011 KP36 ( Spacewatch )

Japanese version
Home page
Updated on March 25, 2017

---------------------------------------------------------------------

* Profile

Discovery Date May 21, 2011
Magnitude 20.4 mag
Discoverer T. H. Bressi (Kitt Peak)

* Pictures

* Orbital Elements

Epoch 2016 May 12.0 TT = JDT 2457520.5
T 2016 May 26.89867 TT                                  MPCW
q   4.8833021            (2000.0)            P               Q
z  +0.0260356      Peri.  180.59799     +0.99445370     +0.09830378
 +/-0.0000000      Node   173.40041     -0.09509541     +0.99227965
e   0.8728602      Incl.   18.98675     -0.04492986     +0.07561387
From 2667 observations 2011 May 21-2017 Feb. 18, mean residual 0".4.

* Finding Charts

* Magnitudes Graph

        m1 = 4.0 + 5 log d + 10.0 log r

---------------------------------------------------------------------

The orbital elements are published on M.P.E.C. 2017-E59.
The charts are made with StellaNavigator Ver.8 (AstroArts).
The magnitudes graphs are made with Comet for Windows.

---------------------------------------------------------------------

Copyright(C) Seiichi Yoshida (comet@aerith.net). All rights reserved.